Year,Month,Day,Hour,Minute,Value (Times are PST for temperature in C)
2015,09,21,00,00,8.60
2015,09,21,00,01,8.60
2015,09,21,00,02,8.60
2015,09,21,00,03,8.60
2015,09,21,00,04,8.60
2015,09,21,00,05,8.50
2015,09,21,00,06,8.50
2015,09,21,00,07,8.50
2015,09,21,00,08,8.50
2015,09,21,00,09,8.50
2015,09,21,00,10,8.40
2015,09,21,00,11,8.40
2015,09,21,00,12,8.40
2015,09,21,00,13,8.40
2015,09,21,00,14,8.40
2015,09,21,00,15,8.40
2015,09,21,00,16,8.40
2015,09,21,00,17,8.40
2015,09,21,00,18,8.30
2015,09,21,00,19,8.30
2015,09,21,00,20,8.30
2015,09,21,00,21,8.30
2015,09,21,00,22,8.30
2015,09,21,00,23,8.30
2015,09,21,00,24,8.30
2015,09,21,00,25,8.30
2015,09,21,00,26,8.30
2015,09,21,00,27,8.20
2015,09,21,00,28,8.20
2015,09,21,00,29,8.20
2015,09,21,00,30,8.20
2015,09,21,00,31,8.20
2015,09,21,00,32,8.20
2015,09,21,00,33,8.20
2015,09,21,00,34,8.20
2015,09,21,00,35,8.20
2015,09,21,00,36,8.20
2015,09,21,00,37,8.20
2015,09,21,00,38,8.20
2015,09,21,00,39,8.20
2015,09,21,00,40,8.20
2015,09,21,00,41,8.20
2015,09,21,00,42,8.20
2015,09,21,00,43,8.20
2015,09,21,00,44,8.20
2015,09,21,00,45,8.20
2015,09,21,00,46,8.20
2015,09,21,00,47,8.20
2015,09,21,00,48,8.20
2015,09,21,00,49,8.20
2015,09,21,00,50,8.20
2015,09,21,00,51,8.20
2015,09,21,00,52,8.20
2015,09,21,00,53,8.20
2015,09,21,00,54,8.20
2015,09,21,00,55,8.20
2015,09,21,00,56,8.20
2015,09,21,00,57,8.20
2015,09,21,00,58,8.20
2015,09,21,00,59,8.20
2015,09,21,01,00,8.20
2015,09,21,01,01,8.20
2015,09,21,01,02,8.20
2015,09,21,01,03,8.20
2015,09,21,01,04,8.20
2015,09,21,01,05,8.20
2015,09,21,01,06,8.20
2015,09,21,01,07,8.20
2015,09,21,01,08,8.20
2015,09,21,01,09,8.30
2015,09,21,01,10,8.30
2015,09,21,01,11,8.30
2015,09,21,01,12,8.30
2015,09,21,01,13,8.30
2015,09,21,01,14,8.30
2015,09,21,01,15,8.30
2015,09,21,01,16,8.30
2015,09,21,01,17,8.30
2015,09,21,01,18,8.30
2015,09,21,01,19,8.30
2015,09,21,01,20,8.30
2015,09,21,01,21,8.30
2015,09,21,01,22,8.30
2015,09,21,01,23,8.30
2015,09,21,01,24,8.30
2015,09,21,01,25,8.30
2015,09,21,01,26,8.30
2015,09,21,01,27,8.30
2015,09,21,01,28,8.30
2015,09,21,01,29,8.30
2015,09,21,01,30,8.30
2015,09,21,01,31,8.20
2015,09,21,01,32,8.20
2015,09,21,01,33,8.20
2015,09,21,01,34,8.20
2015,09,21,01,35,8.20
2015,09,21,01,36,8.20
2015,09,21,01,37,8.20
2015,09,21,01,38,8.20
2015,09,21,01,39,8.20
2015,09,21,01,40,8.20
2015,09,21,01,41,8.20
2015,09,21,01,42,8.20
2015,09,21,01,43,8.20
2015,09,21,01,44,8.30
2015,09,21,01,45,8.30
2015,09,21,01,46,8.30
2015,09,21,01,47,8.30
2015,09,21,01,48,8.30
2015,09,21,01,49,8.30
2015,09,21,01,50,8.40
2015,09,21,01,51,8.40
2015,09,21,01,52,8.40
2015,09,21,01,53,8.40
2015,09,21,01,54,8.40
2015,09,21,01,55,8.50
2015,09,21,01,56,8.50
2015,09,21,01,57,8.50
2015,09,21,01,58,8.50
2015,09,21,01,59,8.50
2015,09,21,02,00,8.50
2015,09,21,02,01,8.50
2015,09,21,02,02,8.50
2015,09,21,02,03,8.50
2015,09,21,02,04,8.50
2015,09,21,02,05,8.50
2015,09,21,02,06,8.50
2015,09,21,02,07,8.50
2015,09,21,02,08,8.50
2015,09,21,02,09,8.50
2015,09,21,02,10,8.50
2015,09,21,02,11,8.50
2015,09,21,02,12,8.40
2015,09,21,02,13,8.40
2015,09,21,02,14,8.40
2015,09,21,02,15,8.40
2015,09,21,02,16,8.40
2015,09,21,02,17,8.40
2015,09,21,02,18,8.40
2015,09,21,02,19,8.40
2015,09,21,02,20,8.30
2015,09,21,02,21,8.30
2015,09,21,02,22,8.30
2015,09,21,02,23,8.30
2015,09,21,02,24,8.30
2015,09,21,02,25,8.30
2015,09,21,02,26,8.30
2015,09,21,02,27,8.30
2015,09,21,02,28,8.30
2015,09,21,02,29,8.40
2015,09,21,02,30,8.40
2015,09,21,02,31,8.40
2015,09,21,02,32,8.40
2015,09,21,02,33,8.40
2015,09,21,02,34,8.40
2015,09,21,02,35,8.40
2015,09,21,02,36,8.40
2015,09,21,02,37,8.40
2015,09,21,02,38,8.40
2015,09,21,02,39,8.40
2015,09,21,02,40,8.40
2015,09,21,02,41,8.40
2015,09,21,02,42,8.40
2015,09,21,02,43,8.40
2015,09,21,02,44,8.40
2015,09,21,02,45,8.40
2015,09,21,02,46,8.40
2015,09,21,02,47,8.40
2015,09,21,02,48,8.40
2015,09,21,02,49,8.40
2015,09,21,02,50,8.50
2015,09,21,02,51,8.50
2015,09,21,02,52,8.50
2015,09,21,02,53,8.50
2015,09,21,02,54,8.50
2015,09,21,02,55,8.50
2015,09,21,02,56,8.50
2015,09,21,02,57,8.50
2015,09,21,02,58,8.50
2015,09,21,02,59,8.50
2015,09,21,03,00,8.50
2015,09,21,03,01,8.50
2015,09,21,03,02,8.50
2015,09,21,03,03,8.50
2015,09,21,03,04,8.50
2015,09,21,03,05,8.50
2015,09,21,03,06,8.60
2015,09,21,03,07,8.60
2015,09,21,03,08,8.60
2015,09,21,03,09,8.60
2015,09,21,03,10,8.60
2015,09,21,03,11,8.70
2015,09,21,03,12,8.70
2015,09,21,03,13,8.70
2015,09,21,03,14,8.70
2015,09,21,03,15,8.70
2015,09,21,03,16,8.70
2015,09,21,03,17,8.70
2015,09,21,03,18,8.70
2015,09,21,03,19,8.70
2015,09,21,03,20,8.70
2015,09,21,03,21,8.80
2015,09,21,03,22,8.80
2015,09,21,03,23,8.80
2015,09,21,03,24,8.80
2015,09,21,03,25,8.80
2015,09,21,03,26,8.80
2015,09,21,03,27,8.80
2015,09,21,03,28,8.80
2015,09,21,03,29,8.80
2015,09,21,03,30,8.90
2015,09,21,03,31,8.90
2015,09,21,03,32,8.90
2015,09,21,03,33,8.90
2015,09,21,03,34,8.90
2015,09,21,03,35,8.90
2015,09,21,03,36,8.90
2015,09,21,03,37,8.90
2015,09,21,03,38,8.90
2015,09,21,03,39,9.00
2015,09,21,03,40,9.00
2015,09,21,03,41,9.00
2015,09,21,03,42,9.00
2015,09,21,03,43,9.10
2015,09,21,03,44,9.10
2015,09,21,03,45,9.10
2015,09,21,03,46,9.20
2015,09,21,03,47,9.20
2015,09,21,03,48,9.20
2015,09,21,03,49,9.20
2015,09,21,03,50,9.20
2015,09,21,03,51,9.20
2015,09,21,03,52,9.20
2015,09,21,03,53,9.20
2015,09,21,03,54,9.20
2015,09,21,03,55,9.30
2015,09,21,03,56,9.30
2015,09,21,03,57,9.30
2015,09,21,03,58,9.30
2015,09,21,03,59,9.30
2015,09,21,04,00,9.30
2015,09,21,04,01,9.30
2015,09,21,04,02,9.30
2015,09,21,04,03,9.40
2015,09,21,04,04,9.40
2015,09,21,04,05,9.40
2015,09,21,04,06,9.40
2015,09,21,04,07,9.40
2015,09,21,04,08,9.50
2015,09,21,04,09,9.50
2015,09,21,04,10,9.50
2015,09,21,04,11,9.50
2015,09,21,04,12,9.50
2015,09,21,04,13,9.60
2015,09,21,04,14,9.60
2015,09,21,04,15,9.60
2015,09,21,04,16,9.60
2015,09,21,04,17,9.70
2015,09,21,04,18,9.70
2015,09,21,04,19,9.70
2015,09,21,04,20,9.70
2015,09,21,04,21,9.70
2015,09,21,04,22,9.70
2015,09,21,04,23,9.70
2015,09,21,04,24,9.70
2015,09,21,04,25,9.70
2015,09,21,04,26,9.80
2015,09,21,04,27,9.80
2015,09,21,04,28,9.80
2015,09,21,04,29,9.80
2015,09,21,04,30,9.80
2015,09,21,04,31,9.80
2015,09,21,04,32,9.80
2015,09,21,04,33,9.80
2015,09,21,04,34,9.80
2015,09,21,04,35,9.80
2015,09,21,04,36,9.90
2015,09,21,04,37,9.90
2015,09,21,04,38,9.90
2015,09,21,04,39,9.90
2015,09,21,04,40,9.90
2015,09,21,04,41,9.90
2015,09,21,04,42,9.90
2015,09,21,04,43,9.90
2015,09,21,04,44,9.90
2015,09,21,04,45,9.90
2015,09,21,04,46,9.90
2015,09,21,04,47,9.90
2015,09,21,04,48,9.90
2015,09,21,04,49,9.90
2015,09,21,04,50,9.90
2015,09,21,04,51,9.90
2015,09,21,04,52,9.90
2015,09,21,04,53,9.90
2015,09,21,04,54,9.90
2015,09,21,04,55,9.90
2015,09,21,04,56,9.90
2015,09,21,04,57,9.90
2015,09,21,04,58,9.90
2015,09,21,04,59,9.90
2015,09,21,05,00,9.90
2015,09,21,05,01,9.90
2015,09,21,05,02,9.90
2015,09,21,05,03,9.90
2015,09,21,05,04,9.90
2015,09,21,05,05,9.90
2015,09,21,05,06,9.90
2015,09,21,05,07,9.90
2015,09,21,05,08,9.90
2015,09,21,05,09,9.90
2015,09,21,05,10,9.90
2015,09,21,05,11,9.90
2015,09,21,05,12,9.90
2015,09,21,05,13,10.00
2015,09,21,05,14,10.10
2015,09,21,05,15,10.10
2015,09,21,05,16,10.10
2015,09,21,05,17,10.10
2015,09,21,05,18,10.10
2015,09,21,05,19,10.10
2015,09,21,05,20,10.10
2015,09,21,05,21,10.10
2015,09,21,05,22,10.10
2015,09,21,05,23,10.10
2015,09,21,05,24,10.10
2015,09,21,05,25,10.10
2015,09,21,05,26,10.10
2015,09,21,05,27,10.10
2015,09,21,05,28,10.10
2015,09,21,05,29,10.10
2015,09,21,05,30,10.10
2015,09,21,05,31,10.10
2015,09,21,05,32,10.10
2015,09,21,05,33,10.10
2015,09,21,05,34,10.10
2015,09,21,05,35,10.10
2015,09,21,05,36,10.10
2015,09,21,05,37,10.10
2015,09,21,05,38,10.10
2015,09,21,05,39,10.10
2015,09,21,05,40,10.10
2015,09,21,05,41,10.10
2015,09,21,05,42,10.10
2015,09,21,05,43,10.10
2015,09,21,05,44,10.10
2015,09,21,05,45,10.10
2015,09,21,05,46,10.10
2015,09,21,05,47,10.10
2015,09,21,05,48,10.10
2015,09,21,05,49,10.10
2015,09,21,05,50,10.10
2015,09,21,05,51,10.10
2015,09,21,05,52,10.10
2015,09,21,05,53,10.10
2015,09,21,05,54,10.10
2015,09,21,05,55,10.10
2015,09,21,05,56,10.10
2015,09,21,05,57,10.10
2015,09,21,05,58,10.10
2015,09,21,05,59,10.10
2015,09,21,06,00,10.10
2015,09,21,06,01,10.10
2015,09,21,06,02,10.10
2015,09,21,06,03,10.10
2015,09,21,06,04,10.10
2015,09,21,06,05,10.10
2015,09,21,06,06,10.10
2015,09,21,06,07,10.10
2015,09,21,06,08,10.10
2015,09,21,06,09,10.10
2015,09,21,06,10,10.10
2015,09,21,06,11,10.10
2015,09,21,06,12,10.00
2015,09,21,06,13,10.00
2015,09,21,06,14,10.00
2015,09,21,06,15,10.00
2015,09,21,06,16,9.90
2015,09,21,06,17,9.90
2015,09,21,06,18,9.90
2015,09,21,06,19,9.90
2015,09,21,06,20,9.90
2015,09,21,06,21,9.90
2015,09,21,06,22,9.90
2015,09,21,06,23,9.90
2015,09,21,06,24,9.90
2015,09,21,06,25,9.90
2015,09,21,06,26,9.90
2015,09,21,06,27,9.90
2015,09,21,06,28,9.90
2015,09,21,06,29,9.90
2015,09,21,06,30,9.90
2015,09,21,06,31,9.80
2015,09,21,06,32,9.80
2015,09,21,06,33,9.80
2015,09,21,06,34,9.80
2015,09,21,06,35,9.80
2015,09,21,06,36,9.70
2015,09,21,06,37,9.70
2015,09,21,06,38,9.70
2015,09,21,06,39,9.70
2015,09,21,06,40,9.70
2015,09,21,06,41,9.70
2015,09,21,06,42,9.70
2015,09,21,06,43,9.60
2015,09,21,06,44,9.60
2015,09,21,06,45,9.60
2015,09,21,06,46,9.50
2015,09,21,06,47,9.50
2015,09,21,06,48,9.50
2015,09,21,06,49,9.50
2015,09,21,06,50,9.50
2015,09,21,06,51,9.40
2015,09,21,06,52,9.40
2015,09,21,06,53,9.40
2015,09,21,06,54,9.40
2015,09,21,06,55,9.40
2015,09,21,06,56,9.30
2015,09,21,06,57,9.30
2015,09,21,06,58,9.30
2015,09,21,06,59,9.20
2015,09,21,07,00,9.20
2015,09,21,07,01,9.20
2015,09,21,07,02,9.20
2015,09,21,07,03,9.20
2015,09,21,07,04,9.20
2015,09,21,07,05,9.10
2015,09,21,07,06,9.10
2015,09,21,07,07,9.00
2015,09,21,07,08,9.00
2015,09,21,07,09,9.00
2015,09,21,07,10,9.00
2015,09,21,07,11,9.00
2015,09,21,07,12,8.90
2015,09,21,07,13,8.90
2015,09,21,07,14,8.90
2015,09,21,07,15,8.90
2015,09,21,07,16,8.80
2015,09,21,07,17,8.80
2015,09,21,07,18,8.80
2015,09,21,07,19,8.80
2015,09,21,07,20,8.80
2015,09,21,07,21,8.80
2015,09,21,07,22,8.70
2015,09,21,07,23,8.70
2015,09,21,07,24,8.70
2015,09,21,07,25,8.70
2015,09,21,07,26,8.70
2015,09,21,07,27,8.70
2015,09,21,07,28,8.70
2015,09,21,07,29,8.70
2015,09,21,07,30,8.70
2015,09,21,07,31,8.70
2015,09,21,07,32,8.70
2015,09,21,07,33,8.70
2015,09,21,07,34,8.70
2015,09,21,07,35,8.70
2015,09,21,07,36,8.70
2015,09,21,07,37,8.70
2015,09,21,07,38,8.70
2015,09,21,07,39,8.70
2015,09,21,07,40,8.70
2015,09,21,07,41,8.60
2015,09,21,07,42,8.60
2015,09,21,07,43,8.60
2015,09,21,07,44,8.60
2015,09,21,07,45,8.60
2015,09,21,07,46,8.60
2015,09,21,07,47,8.60
2015,09,21,07,48,8.60
2015,09,21,07,49,8.60
2015,09,21,07,50,8.60
2015,09,21,07,51,8.60
2015,09,21,07,52,8.60
2015,09,21,07,53,8.60
2015,09,21,07,54,8.60
2015,09,21,07,55,8.60
2015,09,21,07,56,8.60
2015,09,21,07,57,8.60
2015,09,21,07,58,8.60
2015,09,21,07,59,8.60
2015,09,21,08,00,8.60
2015,09,21,08,01,8.60
2015,09,21,08,02,8.60
2015,09,21,08,03,8.60
2015,09,21,08,04,8.60
2015,09,21,08,05,8.60
2015,09,21,08,06,8.60
2015,09,21,08,07,8.60
2015,09,21,08,08,8.60
2015,09,21,08,09,8.60
2015,09,21,08,10,8.60
2015,09,21,08,11,8.60
2015,09,21,08,12,8.60
2015,09,21,08,13,8.60
2015,09,21,08,14,8.70
2015,09,21,08,15,8.70
2015,09,21,08,16,8.70
2015,09,21,08,17,8.70
2015,09,21,08,18,8.70
2015,09,21,08,19,8.70
2015,09,21,08,20,8.70
2015,09,21,08,21,8.70
2015,09,21,08,22,8.70
2015,09,21,08,23,8.70
2015,09,21,08,24,8.70
2015,09,21,08,25,8.70
2015,09,21,08,26,8.70
2015,09,21,08,27,8.70
2015,09,21,08,28,8.70
2015,09,21,08,29,8.80
2015,09,21,08,30,8.80
2015,09,21,08,31,8.80
2015,09,21,08,32,8.80
2015,09,21,08,33,8.80
2015,09,21,08,34,8.90
2015,09,21,08,35,8.90
2015,09,21,08,36,9.00
2015,09,21,08,37,9.00
2015,09,21,08,38,9.10
2015,09,21,08,39,9.10
2015,09,21,08,40,9.20
2015,09,21,08,41,9.20
2015,09,21,08,42,9.20
2015,09,21,08,43,9.20
2015,09,21,08,44,9.20
2015,09,21,08,45,9.30
2015,09,21,08,46,9.30
2015,09,21,08,47,9.40
2015,09,21,08,48,9.40
2015,09,21,08,49,9.40
2015,09,21,08,50,9.40
2015,09,21,08,51,9.50
2015,09,21,08,52,9.50
2015,09,21,08,53,9.50
2015,09,21,08,54,9.50
2015,09,21,08,55,9.60
2015,09,21,08,56,9.60
2015,09,21,08,57,9.60
2015,09,21,08,58,9.60
2015,09,21,08,59,9.70
2015,09,21,09,00,9.70
2015,09,21,09,01,9.70
2015,09,21,09,02,9.70
2015,09,21,09,03,9.70
2015,09,21,09,04,9.70
2015,09,21,09,05,9.70
2015,09,21,09,06,9.70
2015,09,21,09,07,9.70
2015,09,21,09,08,9.70
2015,09,21,09,09,9.70
2015,09,21,09,10,9.70
2015,09,21,09,11,9.70
2015,09,21,09,12,9.70
2015,09,21,09,13,9.70
2015,09,21,09,14,9.70
2015,09,21,09,15,9.70
2015,09,21,09,16,9.80
2015,09,21,09,17,9.80
2015,09,21,09,18,9.80
2015,09,21,09,19,9.80
2015,09,21,09,20,9.80
2015,09,21,09,21,9.80
2015,09,21,09,22,9.90
2015,09,21,09,23,9.90
2015,09,21,09,24,9.90
2015,09,21,09,25,9.90
2015,09,21,09,26,9.90
2015,09,21,09,27,9.90
2015,09,21,09,28,10.00
2015,09,21,09,29,10.10
2015,09,21,09,30,10.10
2015,09,21,09,31,10.10
2015,09,21,09,32,10.10
2015,09,21,09,33,10.10
2015,09,21,09,34,10.10
2015,09,21,09,35,10.20
2015,09,21,09,36,10.20
2015,09,21,09,37,10.30
2015,09,21,09,38,10.30
2015,09,21,09,39,10.40
2015,09,21,09,40,10.40
2015,09,21,09,41,10.50
2015,09,21,09,42,10.60
2015,09,21,09,43,10.60
2015,09,21,09,44,10.60
2015,09,21,09,45,10.70
2015,09,21,09,46,10.80
2015,09,21,09,47,10.80
2015,09,21,09,48,10.90
2015,09,21,09,49,11.00
2015,09,21,09,50,11.10
2015,09,21,09,51,11.20
2015,09,21,09,52,11.40
2015,09,21,09,53,11.50
2015,09,21,09,54,11.60
2015,09,21,09,55,11.80
2015,09,21,09,56,11.90
2015,09,21,09,57,12.00
2015,09,21,09,58,12.10
2015,09,21,09,59,12.20
2015,09,21,10,00,12.20
2015,09,21,10,01,12.20
2015,09,21,10,02,12.20
2015,09,21,10,03,12.20
2015,09,21,10,04,12.10
2015,09,21,10,05,12.10
2015,09,21,10,06,12.10
2015,09,21,10,07,12.00
2015,09,21,10,08,12.00
2015,09,21,10,09,12.00
2015,09,21,10,10,12.00
2015,09,21,10,11,11.90
2015,09,21,10,12,11.80
2015,09,21,10,13,11.80
2015,09,21,10,14,11.80
2015,09,21,10,15,11.80
2015,09,21,10,16,11.80
2015,09,21,10,17,11.70
2015,09,21,10,18,11.70
2015,09,21,10,19,11.60
2015,09,21,10,20,11.60
2015,09,21,10,21,11.60
2015,09,21,10,22,11.60
2015,09,21,10,23,11.60
2015,09,21,10,24,11.60
2015,09,21,10,25,11.70
2015,09,21,10,26,11.80
2015,09,21,10,27,11.90
2015,09,21,10,28,12.00
2015,09,21,10,29,12.20
2015,09,21,10,30,12.40
2015,09,21,10,31,12.50
2015,09,21,10,32,12.50
2015,09,21,10,33,12.60
2015,09,21,10,34,12.60
2015,09,21,10,35,12.70
2015,09,21,10,36,12.70
2015,09,21,10,37,12.70
2015,09,21,10,38,12.80
2015,09,21,10,39,12.80
2015,09,21,10,40,13.00
2015,09,21,10,41,13.10
2015,09,21,10,42,13.20
2015,09,21,10,43,13.20
2015,09,21,10,44,13.30
2015,09,21,10,45,13.30
2015,09,21,10,46,13.40
2015,09,21,10,47,13.50
2015,09,21,10,48,13.60
2015,09,21,10,49,13.60
2015,09,21,10,50,13.70
2015,09,21,10,51,13.70
2015,09,21,10,52,13.70
2015,09,21,10,53,13.80
2015,09,21,10,54,13.80
2015,09,21,10,55,13.80
2015,09,21,10,56,13.80
2015,09,21,10,57,13.80
2015,09,21,10,58,13.90
2015,09,21,10,59,13.90
2015,09,21,11,00,13.90
2015,09,21,11,01,13.90
2015,09,21,11,02,13.90
2015,09,21,11,03,14.00
2015,09,21,11,04,14.00
2015,09,21,11,05,14.10
2015,09,21,11,06,14.10
2015,09,21,11,07,14.10
2015,09,21,11,08,14.20
2015,09,21,11,09,14.20
2015,09,21,11,10,14.20
2015,09,21,11,11,14.20
2015,09,21,11,12,14.30
2015,09,21,11,13,14.30
2015,09,21,11,14,14.20
2015,09,21,11,15,14.10
2015,09,21,11,16,14.00
2015,09,21,11,17,13.90
2015,09,21,11,18,13.80
2015,09,21,11,19,13.70
2015,09,21,11,20,13.70
2015,09,21,11,21,13.70
2015,09,21,11,22,13.70
2015,09,21,11,23,13.70
2015,09,21,11,24,13.60
2015,09,21,11,25,13.50
2015,09,21,11,26,13.40
2015,09,21,11,27,13.30
2015,09,21,11,28,13.30
2015,09,21,11,29,13.30
2015,09,21,11,30,13.40
2015,09,21,11,31,13.40
2015,09,21,11,32,13.50
2015,09,21,11,33,13.60
2015,09,21,11,34,13.70
2015,09,21,11,35,13.70
2015,09,21,11,36,13.80
2015,09,21,11,37,13.90
2015,09,21,11,38,14.00
2015,09,21,11,39,14.00
2015,09,21,11,40,14.10
2015,09,21,11,41,14.10
2015,09,21,11,42,14.20
2015,09,21,11,43,14.20
2015,09,21,11,44,14.30
2015,09,21,11,45,14.40
2015,09,21,11,46,14.40
2015,09,21,11,47,14.30
2015,09,21,11,48,14.40
2015,09,21,11,49,14.40
2015,09,21,11,50,14.40
2015,09,21,11,51,14.40
2015,09,21,11,52,14.50
2015,09,21,11,53,14.50
2015,09,21,11,54,14.60
2015,09,21,11,55,14.70
2015,09,21,11,56,14.70
2015,09,21,11,57,14.70
2015,09,21,11,58,14.80
2015,09,21,11,59,14.80
2015,09,21,12,00,14.90
2015,09,21,12,01,15.00
2015,09,21,12,02,15.10
2015,09,21,12,03,15.10
2015,09,21,12,04,15.20
2015,09,21,12,05,15.20
2015,09,21,12,06,15.30
2015,09,21,12,07,15.30
2015,09,21,12,08,15.30
2015,09,21,12,09,15.30
2015,09,21,12,10,15.20
2015,09,21,12,11,15.20
2015,09,21,12,12,15.10
2015,09,21,12,13,15.10
2015,09,21,12,14,15.00
2015,09,21,12,15,14.90
2015,09,21,12,16,14.80
2015,09,21,12,17,14.70
2015,09,21,12,18,14.70
2015,09,21,12,19,14.60
2015,09,21,12,20,14.50
2015,09,21,12,21,14.50
2015,09,21,12,22,14.50
2015,09,21,12,23,14.50
2015,09,21,12,24,14.60
2015,09,21,12,25,14.60
2015,09,21,12,26,14.60
2015,09,21,12,27,14.70
2015,09,21,12,28,14.80
2015,09,21,12,29,14.80
2015,09,21,12,30,14.90
2015,09,21,12,31,15.00
2015,09,21,12,32,15.10
2015,09,21,12,33,15.10
2015,09,21,12,34,15.20
2015,09,21,12,35,15.30
2015,09,21,12,36,15.40
2015,09,21,12,37,15.50
2015,09,21,12,38,15.50
2015,09,21,12,39,15.60
2015,09,21,12,40,15.60
2015,09,21,12,41,15.70
2015,09,21,12,42,15.70
2015,09,21,12,43,15.80
2015,09,21,12,44,15.80
2015,09,21,12,45,15.90
2015,09,21,12,46,15.90
2015,09,21,12,47,15.90
2015,09,21,12,48,15.90
2015,09,21,12,49,15.90
2015,09,21,12,50,15.90
2015,09,21,12,51,15.90
2015,09,21,12,52,15.90
2015,09,21,12,53,15.90
2015,09,21,12,54,15.90
2015,09,21,12,55,15.90
2015,09,21,12,56,15.90
2015,09,21,12,57,15.90
2015,09,21,12,58,15.90
2015,09,21,12,59,15.80
2015,09,21,13,00,15.80
2015,09,21,13,01,15.90
2015,09,21,13,02,16.00
2015,09,21,13,03,16.10
2015,09,21,13,04,16.10
2015,09,21,13,05,16.10
2015,09,21,13,06,16.10
2015,09,21,13,07,16.10
2015,09,21,13,08,16.10
2015,09,21,13,09,16.10
2015,09,21,13,10,16.00
2015,09,21,13,11,15.90
2015,09,21,13,12,15.80
2015,09,21,13,13,15.80
2015,09,21,13,14,15.80
2015,09,21,13,15,15.80
2015,09,21,13,16,15.80
2015,09,21,13,17,15.90
2015,09,21,13,18,16.00
2015,09,21,13,19,16.10
2015,09,21,13,20,16.20
2015,09,21,13,21,16.40
2015,09,21,13,22,16.40
2015,09,21,13,23,16.50
2015,09,21,13,24,16.60
2015,09,21,13,25,16.70
2015,09,21,13,26,16.70
2015,09,21,13,27,16.70
2015,09,21,13,28,16.70
2015,09,21,13,29,16.60
2015,09,21,13,30,16.50
2015,09,21,13,31,16.40
2015,09,21,13,32,16.30
2015,09,21,13,33,16.20
2015,09,21,13,34,16.20
2015,09,21,13,35,16.20
2015,09,21,13,36,16.20
2015,09,21,13,37,16.20
2015,09,21,13,38,16.20
2015,09,21,13,39,16.10
2015,09,21,13,40,16.10
2015,09,21,13,41,16.10
2015,09,21,13,42,16.00
2015,09,21,13,43,15.90
2015,09,21,13,44,15.80
2015,09,21,13,45,15.70
2015,09,21,13,46,15.70
2015,09,21,13,47,15.60
2015,09,21,13,48,15.60
2015,09,21,13,49,15.50
2015,09,21,13,50,15.50
2015,09,21,13,51,15.40
2015,09,21,13,52,15.30
2015,09,21,13,53,15.30
2015,09,21,13,54,15.30
2015,09,21,13,55,15.30
2015,09,21,13,56,15.20
2015,09,21,13,57,15.20
2015,09,21,13,58,15.20
2015,09,21,13,59,15.20
2015,09,21,14,00,15.10
2015,09,21,14,01,15.10
2015,09,21,14,02,15.00
2015,09,21,14,03,15.00
2015,09,21,14,04,14.90
2015,09,21,14,05,14.90
2015,09,21,14,06,15.00
2015,09,21,14,07,15.00
2015,09,21,14,08,15.10
2015,09,21,14,09,15.10
2015,09,21,14,10,15.20
2015,09,21,14,11,15.30
2015,09,21,14,12,15.30
2015,09,21,14,13,15.30
2015,09,21,14,14,15.30
2015,09,21,14,15,15.30
2015,09,21,14,16,15.30
2015,09,21,14,17,15.30
2015,09,21,14,18,15.30
2015,09,21,14,19,15.30
2015,09,21,14,20,15.30
2015,09,21,14,21,15.30
2015,09,21,14,22,15.30
2015,09,21,14,23,15.30
2015,09,21,14,24,15.30
2015,09,21,14,25,15.30
2015,09,21,14,26,15.30
2015,09,21,14,27,15.30
2015,09,21,14,28,15.30
2015,09,21,14,29,15.20
2015,09,21,14,30,15.20
2015,09,21,14,31,15.10
2015,09,21,14,32,15.10
2015,09,21,14,33,15.00
2015,09,21,14,34,15.00
2015,09,21,14,35,15.00
2015,09,21,14,36,14.90
2015,09,21,14,37,14.90
2015,09,21,14,38,14.90
2015,09,21,14,39,14.80
2015,09,21,14,40,14.80
2015,09,21,14,41,14.80
2015,09,21,14,42,14.80
2015,09,21,14,43,14.80
2015,09,21,14,44,14.70
2015,09,21,14,45,14.60
2015,09,21,14,46,14.60
2015,09,21,14,47,14.50
2015,09,21,14,48,14.50
2015,09,21,14,49,14.40
2015,09,21,14,50,14.40
2015,09,21,14,51,14.40
2015,09,21,14,52,14.50
2015,09,21,14,53,14.50
2015,09,21,14,54,14.60
2015,09,21,14,55,14.70
2015,09,21,14,56,14.70
2015,09,21,14,57,14.80
2015,09,21,14,58,14.90
2015,09,21,14,59,15.00
2015,09,21,15,00,15.10
2015,09,21,15,01,15.20
2015,09,21,15,02,15.30
2015,09,21,15,03,15.40
2015,09,21,15,04,15.40
2015,09,21,15,05,15.40
2015,09,21,15,06,15.50
2015,09,21,15,07,15.50
2015,09,21,15,08,15.50
2015,09,21,15,09,15.50
2015,09,21,15,10,15.50
2015,09,21,15,11,15.50
2015,09,21,15,12,15.50
2015,09,21,15,13,15.50
2015,09,21,15,14,15.40
2015,09,21,15,15,15.40
2015,09,21,15,16,15.40
2015,09,21,15,17,15.30
2015,09,21,15,18,15.30
2015,09,21,15,19,15.30
2015,09,21,15,20,15.30
2015,09,21,15,21,15.30
2015,09,21,15,22,15.30
2015,09,21,15,23,15.30
2015,09,21,15,24,15.30
2015,09,21,15,25,15.30
2015,09,21,15,26,15.30
2015,09,21,15,27,15.20
2015,09,21,15,28,15.20
2015,09,21,15,29,15.20
2015,09,21,15,30,15.20
2015,09,21,15,31,15.10
2015,09,21,15,32,15.10
2015,09,21,15,33,15.10
2015,09,21,15,34,15.10
2015,09,21,15,35,15.10
2015,09,21,15,36,15.10
2015,09,21,15,37,15.10
2015,09,21,15,38,15.00
2015,09,21,15,39,15.00
2015,09,21,15,40,15.00
2015,09,21,15,41,15.00
2015,09,21,15,42,15.00
2015,09,21,15,43,15.00
2015,09,21,15,44,15.00
2015,09,21,15,45,15.00
2015,09,21,15,46,15.00
2015,09,21,15,47,14.90
2015,09,21,15,48,14.90
2015,09,21,15,49,14.90
2015,09,21,15,50,14.90
2015,09,21,15,51,15.00
2015,09,21,15,52,15.00
2015,09,21,15,53,15.00
2015,09,21,15,54,15.00
2015,09,21,15,55,15.00
2015,09,21,15,56,15.00
2015,09,21,15,57,15.00
2015,09,21,15,58,15.00
2015,09,21,15,59,14.90
2015,09,21,16,00,14.90
2015,09,21,16,01,14.90
2015,09,21,16,02,14.90
2015,09,21,16,03,14.90
2015,09,21,16,04,14.80
2015,09,21,16,05,14.80
2015,09,21,16,06,14.80
2015,09,21,16,07,14.70
2015,09,21,16,08,14.70
2015,09,21,16,09,14.70
2015,09,21,16,10,14.60
2015,09,21,16,11,14.60
2015,09,21,16,12,14.60
2015,09,21,16,13,14.60
2015,09,21,16,14,14.50
2015,09,21,16,15,14.50
2015,09,21,16,16,14.50
2015,09,21,16,17,14.50
2015,09,21,16,18,14.50
2015,09,21,16,19,14.40
2015,09,21,16,20,14.40
2015,09,21,16,21,14.30
2015,09,21,16,22,14.30
2015,09,21,16,23,14.30
2015,09,21,16,24,14.20
2015,09,21,16,25,14.20
2015,09,21,16,26,14.20
2015,09,21,16,27,14.20
2015,09,21,16,28,14.10
2015,09,21,16,29,14.10
2015,09,21,16,30,14.00
2015,09,21,16,31,14.00
2015,09,21,16,32,14.00
2015,09,21,16,33,14.00
2015,09,21,16,34,14.00
2015,09,21,16,35,13.90
2015,09,21,16,36,13.90
2015,09,21,16,37,13.90
2015,09,21,16,38,13.80
2015,09,21,16,39,13.80
2015,09,21,16,40,13.80
2015,09,21,16,41,13.70
2015,09,21,16,42,13.70
2015,09,21,16,43,13.70
2015,09,21,16,44,13.70
2015,09,21,16,45,13.70
2015,09,21,16,46,13.70
2015,09,21,16,47,13.70
2015,09,21,16,48,13.70
2015,09,21,16,49,13.70
2015,09,21,16,50,13.70
2015,09,21,16,51,13.70
2015,09,21,16,52,13.60
2015,09,21,16,53,13.60
2015,09,21,16,54,13.60
2015,09,21,16,55,13.70
2015,09,21,16,56,13.70
2015,09,21,16,57,13.70
2015,09,21,16,58,13.70
2015,09,21,16,59,13.70
2015,09,21,17,00,13.70
2015,09,21,17,01,13.70
2015,09,21,17,02,13.70
2015,09,21,17,03,13.70
2015,09,21,17,04,13.70
2015,09,21,17,05,13.70
2015,09,21,17,06,13.70
2015,09,21,17,07,13.70
2015,09,21,17,08,13.70
2015,09,21,17,09,13.70
2015,09,21,17,10,13.70
2015,09,21,17,11,13.70
2015,09,21,17,12,13.70
2015,09,21,17,13,13.70
2015,09,21,17,14,13.70
2015,09,21,17,15,13.60
2015,09,21,17,16,13.60
2015,09,21,17,17,13.50
2015,09,21,17,18,13.50
2015,09,21,17,19,13.50
2015,09,21,17,20,13.50
2015,09,21,17,21,13.50
2015,09,21,17,22,13.40
2015,09,21,17,23,13.40
2015,09,21,17,24,13.40
2015,09,21,17,25,13.30
2015,09,21,17,26,13.30
2015,09,21,17,27,13.30
2015,09,21,17,28,13.30
2015,09,21,17,29,13.20
2015,09,21,17,30,13.20
2015,09,21,17,31,13.20
2015,09,21,17,32,13.20
2015,09,21,17,33,13.10
2015,09,21,17,34,13.10
2015,09,21,17,35,13.10
2015,09,21,17,36,13.10
2015,09,21,17,37,13.00
2015,09,21,17,38,13.00
2015,09,21,17,39,13.00
2015,09,21,17,40,12.90
2015,09,21,17,41,12.80